User: anonymous   Login
Location: Bangkok
(13.7500°N, 100.5170°E)
Time: 13:48:49
(UTC+07:00)
Language:

Cosmos 1802 Rocket - Orbit

View from above orbital plane
View from above orbital plane
View from above satellite
View from above satellite

Ground track
Ground track

The orbit data is extracted from the following two-line orbital elements,

1 17160U 86093B   17266.78183469  .00000051  00000-0  37631-4 0  9999
2 17160  82.9313 351.1669 0037953 232.6648 240.8786 13.74602279546418
Epoch (UTC): 23 September 2017 18:45:50
Eccentricity: 0.0037953
inclination: 82.9313°
perigee height: 955 km
apogee height: 1011 km
right ascension of ascending node: 351.1669°
argument of perigee: 232.6648°
revolutions per day: 13.74602279
mean anomaly at epoch: 240.8786°
orbit number at epoch: 54641

The dashed part of the orbit path shows where the satellite is in the earth's shadow,  

DLR